Temp
41 35 30 30 33 36 35 34 33 30 35 31 31 33 37 40 36 34 37 37 37 39 41 41 41 40 40 39 40 40 40 41 40 38 37 36 34 35 35 37 38 38 38 39
35 31 32 37 37 37 35 31 28 31 35 31 30 32 35 36 36 37 38 38 38 38 37 39 38 38 37 37 38 39 40 40 39 38 37 37 35 36 36 36 37 38 37 37
31 30 36 35 33 34 28 29 27 28 30 31 27 31 35 39 39 38 38 38 38 38 36 35 35 34 34 35 35 38 38 38 38 38 38 37 36 35 34 34 34 36 37 37
29 33 33 31 31 30 30 29 31 31 26 25 27 23 29 33 35 39 39 38 39 38 37 37 35 33 34 34 34 37 38 37 38 38 37 35 32 31 32 33 33 34 36 36
27 27 29 30 29 29 29 30 29 28 24 23 22 23 29 33 32 32 34 39 38 40 37 36 37 38 36 35 34 34 35 36 37 37 36 33 32 32 33 33 33 34 34 35
27 31 28 27 30 30 32 29 28 25 23 12 21 23 25 30 35 35 36 34 36 36 38 37 38 38 36 34 34 33 34 35 36 36 36 34 33 32 31 31 31 31 31 31
27 26 27 30 27 30 28 25 16 14 10 15 23 21 25 32 34 35 34 32 32 34 35 35 35 36 36 33 33 34 34 33 34 34 34 34 34 33 33 32 30 30 30 29
21 20 26 28 26 25 27 23 17 10 14 20 25 20 27 34 34 34 36 35 35 33 38 36 37 37 36 35 34 35 33 33 33 33 33 34 34 32 32 32 31 31 30 30
17 21 26 28 27 25 25 20 25 12 10 11 22 25 31 32 33 32 33 33 30 31 36 37 35 36 36 36 36 36 34 33 33 33 33 33 33 32 32 32 32 31 31 34
28 14 26 26 26 26 24 26 20 16 5 5 20 17 23 29 32 32 32 32 32 32 33 37 36 36 37 38 38 36 36 35 33 33 33 34 33 33 32 31 31 31 31 32
19 20 19 24 17 22 19 19 19 20 18 12 10 18 23 31 32 32 32 33 33 34 35 36 36 36 37 36 35 35 34 33 32 33 32 32 32 32 32 31 30 30 31 31
25 18 10 17 21 23 20 21 22 16 15 13 14 17 31 32 34 33 32 34 34 35 35 34 35 35 35 34 34 35 34 34 34 33 32 32 32 32 30 30 30 30 30 30
24 15 6 16 17 20 13 24 27 22 19 11 12 19 34 32 31 32 32 32 33 34 33 35 34 34 33 33 33 34 35 35 34 33 32 31 31 30 30 29 30 30 27 27
31 13 17 20 20 16 10 13 24 17 9 17 21 24 29 30 30 31 32 33 33 33 34 33 32 33 33 33 32 33 33 33 33 32 31 30 30 30 30 30 30 29 28 25
23 16 12 13 20 17 14 11 19 17 21 20 29 30 30 30 28 32 32 32 33 34 32 30 31 31 31 32 31 32 33 32 32 31 30 30 30 31 30 30 29 29 29 27
14 10 8 11 22 21 14 15 15 24 26 24 26 26 31 22 30 29 30 30 30 29 29 28 30 31 32 32 31 32 31 30 31 30 30 30 30 30 30 30 30 29 29 28
15 10 10 10 21 18 14 14 17 20 14 24 20 29 30 25 29 27 26 28 28 28 28 29 28 28 30 30 31 29 28 27 29 29 29 30 29 29 29 29 29 29 27 27
11 11 9 6 8 9 23 21 20 26 25 25 21 22 24 25 24 24 24 26 27 28 26 24 23 22 23 24 25 25 25 25 24 23 23 24 25 24 25 24 23 22 24 20
16 13 7 11 1 17 21 18 17 16 21 27 26 31 20 19 18 17 24 24 23 22 22 20 19 19 21 21 22 21 19 19 19 18 19 19 20 20 20 20 17 15 15 13
19 14 14 5 9 8 15 19 20 20 21 20 28 29 23 21 18 15 17 22 21 20 20 19 18 19 19 20 21 18 13 13 10 13 14 16 16 17 15 16 16 16 11 14
6 5 11 7 6 11 18 21 20 16 21 18 22 23 23 24 18 17 19 18 19 20 18 17 15 14 14 19 18 12 10 6 9 10 12 13 13 14 16 16 14 12 10 11
9 9 5 4 4 11 22 23 23 21 15 19 18 18 19 18 18 17 16 16 16 15 16 15 12 11 10 11 13 8 6 7 6 7 8 8 9 14 15 13 13 11 10 11
15 17 12 18 17 15 24 23 20 16 17 19 19 21 22 19 17 16 13 12 10 12 14 14 10 7 3 5 8 5 4 4 4 2 2 3 7 11 11 11 9 11 13 11
12 12 13 18 14 17 21 20 20 20 20 22 21 21 21 16 17 14 13 13 12 11 10 12 9 5 3 4 4 3 3 1 -3 -2 1 4 3 5 7 9 11 10 7 7
18 19 13 15 19 23 22 23 21 19 19 18 19 19 18 19 17 16 14 13 11 10 9 9 8 5 3 3 1 -0 1 -1 -1 -1 -1 -1 2 2 5 8 8 10 11 13
17 15 20 20 24 23 21 21 21 19 17 16 15 14 16 16 14 13 10 10 9 7 7 5 4 2 1 1 0 -1 -1 -2 -4 -1 0 1 1 1 4 3 3 10 13 15
MSLP
1019.86 1020.81 1021.45 1021.68 1021.44 1021.16 1021.15 1021.39 1021.83 1022.85 1023.24 1023.32 1023.35 1023.16 1022.52 1022.81 1023.52 1024.19 1024.62 1024.94 1025.39 1025.61 1025.85 1026.49 1027.04 1027.59 1028.04 1028.51 1028.83 1029.07 1029.25 1029.26 1029.47 1029.83 1030.15 1030.34 1030.65 1030.79 1030.83 1030.68 1030.57 1030.44 1030.37 1030.12
1021.31 1022.11 1022.73 1022.47 1022.13 1021.85 1021.89 1022.29 1022.77 1023.39 1023.57 1023.79 1023.62 1023.11 1021.90 1021.95 1022.46 1023.06 1023.67 1024.19 1024.58 1025.22 1025.88 1026.61 1027.20 1027.66 1028.10 1028.54 1028.86 1029.19 1029.26 1029.29 1029.38 1029.58 1029.93 1030.19 1030.61 1030.93 1031.14 1031.14 1031.10 1030.98 1030.90 1030.68
1022.43 1023.52 1023.35 1023.12 1023.13 1023.05 1023.42 1023.50 1023.65 1023.98 1024.08 1024.13 1024.08 1023.44 1021.96 1021.44 1021.52 1022.04 1022.79 1023.28 1023.87 1024.63 1025.63 1026.66 1027.35 1027.84 1028.29 1028.82 1029.12 1029.31 1029.50 1029.69 1029.76 1029.71 1029.90 1030.18 1030.59 1030.93 1031.29 1031.41 1031.48 1031.36 1031.19 1031.06
1024.01 1024.29 1024.10 1024.06 1024.48 1024.41 1024.50 1024.49 1024.48 1024.68 1024.94 1024.97 1024.47 1023.94 1022.44 1021.69 1021.65 1021.95 1022.48 1022.95 1023.42 1024.13 1025.31 1026.18 1027.01 1027.75 1028.14 1028.73 1029.14 1029.40 1029.66 1029.86 1029.87 1029.87 1030.13 1030.26 1030.68 1031.03 1031.26 1031.44 1031.60 1031.65 1031.53 1031.49
1025.30 1025.30 1025.22 1025.29 1025.58 1025.32 1025.31 1025.29 1025.38 1025.51 1025.66 1025.56 1025.16 1024.65 1022.64 1021.96 1022.00 1022.14 1022.28 1022.57 1023.09 1023.44 1024.32 1025.53 1026.22 1026.86 1027.50 1028.05 1028.67 1029.20 1029.57 1029.80 1029.82 1029.97 1030.13 1030.41 1030.70 1030.97 1031.22 1031.46 1031.61 1031.71 1031.83 1031.77
1025.98 1026.19 1026.37 1026.42 1026.43 1026.10 1026.05 1026.22 1026.35 1026.58 1026.87 1026.65 1025.62 1025.03 1023.14 1022.32 1021.61 1021.93 1022.32 1022.72 1022.99 1023.35 1023.97 1024.85 1025.63 1026.38 1026.96 1027.55 1028.01 1028.60 1029.21 1029.76 1029.93 1029.99 1030.09 1030.35 1030.59 1030.96 1031.32 1031.53 1031.68 1031.85 1032.08 1032.15
1026.61 1026.99 1027.10 1026.92 1027.00 1026.91 1026.81 1027.08 1027.85 1028.39 1028.32 1027.54 1026.27 1025.73 1022.80 1021.83 1021.56 1021.68 1022.14 1022.53 1022.83 1023.12 1023.72 1024.72 1025.51 1026.18 1026.81 1027.43 1027.92 1028.36 1028.89 1029.55 1029.80 1030.04 1030.22 1030.39 1030.54 1030.77 1031.03 1031.23 1031.47 1031.71 1032.01 1032.33
1026.49 1027.73 1027.55 1027.46 1027.40 1027.22 1027.34 1027.41 1027.90 1028.76 1029.24 1028.38 1027.23 1025.59 1022.90 1021.93 1022.07 1022.28 1022.45 1022.74 1022.90 1023.22 1023.66 1024.42 1025.07 1025.82 1026.40 1026.96 1027.44 1027.98 1028.56 1028.95 1029.54 1029.92 1030.26 1030.33 1030.49 1030.73 1031.03 1031.07 1031.23 1031.56 1031.85 1032.12
1025.77 1027.42 1028.05 1028.04 1027.99 1028.18 1027.91 1027.90 1028.09 1029.02 1030.13 1029.22 1026.86 1024.89 1023.05 1022.50 1022.62 1022.83 1023.02 1023.16 1023.46 1023.60 1023.88 1024.38 1024.85 1025.28 1025.78 1026.16 1026.63 1027.15 1028.14 1028.52 1028.84 1029.35 1029.74 1030.17 1030.42 1030.78 1030.99 1031.01 1031.24 1031.52 1031.70 1031.67
1024.34 1027.26 1028.59 1028.65 1028.54 1028.51 1028.35 1028.40 1028.66 1029.32 1030.44 1029.60 1027.31 1025.47 1023.08 1022.86 1022.75 1023.18 1023.49 1023.60 1023.68 1023.74 1023.97 1024.20 1024.45 1024.69 1025.01 1025.36 1025.94 1026.77 1027.21 1028.11 1028.78 1029.18 1029.36 1029.69 1029.95 1030.42 1030.74 1030.92 1031.08 1031.34 1031.42 1031.48
1024.42 1025.63 1029.47 1029.31 1028.86 1028.43 1029.04 1028.76 1028.88 1028.99 1029.12 1028.82 1027.95 1024.95 1021.91 1021.48 1022.00 1022.76 1023.37 1023.64 1023.69 1023.95 1024.02 1024.11 1024.13 1024.49 1024.70 1025.29 1025.91 1026.61 1027.36 1027.84 1028.33 1028.68 1029.18 1029.49 1029.82 1030.02 1030.35 1030.43 1030.82 1030.89 1031.09 1031.33
1024.35 1026.31 1028.84 1028.94 1028.99 1028.87 1028.86 1028.47 1028.19 1028.73 1029.11 1028.82 1027.50 1023.95 1021.37 1021.12 1021.63 1022.32 1023.22 1023.27 1023.22 1023.32 1023.74 1023.92 1023.94 1024.19 1024.74 1025.16 1025.66 1026.06 1026.84 1027.38 1027.89 1028.45 1028.99 1029.51 1029.77 1029.84 1030.34 1030.18 1030.45 1030.78 1030.76 1031.00
1024.24 1026.25 1028.54 1029.47 1029.77 1029.50 1029.16 1028.20 1027.88 1027.88 1027.97 1027.80 1026.91 1023.38 1021.60 1021.58 1022.04 1022.51 1022.80 1023.03 1023.11 1023.18 1023.38 1023.74 1023.91 1023.96 1024.27 1024.70 1024.98 1025.52 1026.11 1026.72 1027.16 1027.81 1028.47 1029.12 1029.36 1029.61 1029.72 1029.82 1030.05 1030.43 1030.65 1030.74
1024.41 1025.59 1026.32 1026.94 1026.96 1027.30 1028.49 1027.75 1027.56 1027.44 1028.08 1026.48 1023.80 1022.59 1021.91 1021.92 1022.07 1022.45 1022.75 1022.80 1022.94 1023.06 1023.18 1023.50 1023.90 1023.90 1024.00 1024.12 1024.51 1025.00 1025.41 1026.10 1026.81 1027.52 1028.23 1028.71 1028.88 1029.12 1029.34 1029.61 1029.74 1030.00 1030.28 1030.53
1025.34 1026.59 1026.89 1026.90 1026.65 1026.82 1026.90 1026.85 1026.87 1026.62 1025.61 1024.72 1022.26 1021.89 1021.62 1021.33 1021.89 1022.11 1022.45 1022.91 1023.21 1023.32 1023.55 1023.85 1024.05 1024.00 1024.15 1024.36 1024.30 1024.94 1025.09 1025.58 1026.46 1027.21 1027.67 1028.19 1028.60 1028.93 1029.13 1029.30 1029.48 1029.61 1029.77 1030.03
1026.41 1027.30 1027.67 1027.80 1027.04 1026.83 1026.86 1026.23 1026.22 1025.86 1025.18 1023.81 1022.78 1021.01 1020.89 1021.18 1021.82 1022.42 1023.07 1023.35 1023.73 1023.94 1024.53 1024.36 1024.21 1024.10 1024.40 1024.51 1024.82 1025.12 1025.50 1025.80 1026.09 1027.05 1027.62 1027.86 1028.26 1028.72 1029.10 1029.36 1029.50 1029.56 1029.76 1029.78
1026.71 1027.60 1028.32 1028.52 1027.48 1027.04 1026.33 1023.89 1024.31 1024.01 1023.31 1022.34 1022.37 1019.83 1020.58 1021.74 1022.36 1023.07 1023.76 1023.96 1024.41 1024.80 1025.14 1025.43 1025.34 1025.14 1025.07 1024.80 1025.15 1025.42 1025.88 1026.12 1026.81 1027.20 1027.92 1028.09 1028.48 1028.68 1029.00 1029.29 1029.54 1029.66 1029.85 1029.87
1026.52 1027.57 1027.97 1028.94 1028.41 1026.54 1021.98 1021.73 1021.75 1021.83 1021.45 1021.66 1021.02 1020.69 1020.79 1021.32 1022.65 1023.56 1024.08 1024.53 1025.15 1025.66 1026.26 1026.72 1027.12 1026.87 1026.76 1026.34 1026.25 1026.26 1027.10 1027.45 1028.15 1028.71 1029.12 1029.31 1029.58 1029.77 1029.73 1029.79 1030.15 1030.24 1030.26 1030.28
1026.10 1026.74 1028.27 1028.44 1027.91 1024.04 1021.72 1022.01 1021.89 1022.07 1020.04 1019.75 1020.04 1020.39 1021.72 1022.64 1023.53 1024.91 1024.84 1025.26 1026.19 1026.89 1027.53 1027.95 1028.45 1028.55 1028.28 1028.00 1028.21 1028.05 1028.71 1029.23 1029.86 1030.38 1030.68 1030.89 1030.70 1030.65 1030.67 1030.78 1030.80 1030.82 1030.71 1030.59
1026.60 1026.64 1027.13 1027.79 1026.75 1024.01 1020.81 1020.09 1020.47 1020.87 1019.81 1018.61 1018.96 1019.76 1021.50 1023.01 1024.51 1025.24 1025.76 1026.24 1027.24 1028.02 1028.71 1029.16 1029.42 1029.68 1029.55 1029.80 1029.65 1029.71 1030.64 1031.07 1031.68 1031.97 1031.89 1031.71 1031.60 1031.40 1031.59 1031.41 1031.34 1031.24 1031.12 1030.88
1027.21 1027.25 1026.80 1026.61 1025.32 1022.01 1019.68 1019.90 1020.57 1021.46 1020.10 1019.51 1019.62 1020.34 1021.65 1023.02 1023.63 1024.86 1026.24 1027.21 1028.11 1028.87 1029.81 1030.26 1030.52 1031.02 1031.18 1031.21 1031.28 1031.66 1032.32 1032.92 1033.35 1032.99 1032.89 1032.50 1032.22 1031.99 1031.90 1031.83 1031.68 1031.44 1031.06 1030.76
1023.77 1025.23 1025.70 1025.71 1024.70 1021.90 1019.41 1020.56 1020.23 1019.80 1020.11 1020.17 1020.34 1020.92 1022.12 1023.36 1024.64 1025.82 1027.04 1028.01 1029.20 1029.95 1030.48 1031.02 1031.44 1032.15 1032.64 1032.65 1032.68 1033.17 1033.67 1034.44 1034.10 1033.76 1033.59 1033.12 1032.73 1032.36 1032.20 1031.92 1031.73 1031.43 1031.10 1030.82
1021.54 1020.25 1021.20 1021.25 1019.73 1018.96 1018.79 1019.07 1019.39 1019.95 1020.42 1020.96 1021.15 1021.90 1022.46 1023.94 1025.47 1026.71 1028.02 1029.02 1030.05 1030.85 1031.32 1031.80 1032.42 1033.25 1033.76 1033.88 1034.00 1034.37 1035.13 1035.05 1034.68 1034.31 1033.99 1033.68 1033.32 1033.01 1032.72 1032.27 1031.91 1031.52 1031.17 1030.91
1019.71 1019.24 1019.59 1019.85 1019.25 1019.15 1019.30 1019.70 1020.03 1020.43 1021.22 1021.92 1022.36 1022.76 1023.48 1024.56 1026.15 1027.55 1028.72 1029.89 1030.97 1031.75 1032.23 1032.62 1033.22 1034.04 1034.67 1035.09 1035.49 1035.62 1035.73 1035.56 1035.16 1034.91 1034.52 1034.17 1033.78 1033.43 1033.02 1032.65 1032.29 1031.95 1031.66 1031.13
1017.70 1018.30 1018.96 1019.17 1019.22 1019.39 1019.72 1019.94 1020.66 1021.66 1022.35 1023.01 1023.65 1024.16 1025.04 1025.69 1027.15 1028.05 1029.25 1030.26 1031.46 1032.36 1033.04 1033.51 1034.00 1034.91 1035.62 1035.97 1036.12 1036.20 1036.19 1035.99 1035.67 1035.39 1035.12 1034.83 1034.35 1033.97 1033.52 1033.12 1032.73 1032.25 1031.87 1031.24
1017.15 1017.40 1018.02 1017.96 1017.76 1018.43 1019.48 1020.14 1021.19 1022.12 1023.25 1024.17 1024.70 1025.82 1026.60 1027.10 1028.19 1029.27 1030.40 1031.33 1032.20 1033.34 1034.04 1034.59 1035.18 1035.86 1036.32 1036.42 1036.56 1036.83 1036.85 1036.70 1036.49 1036.03 1035.62 1035.27 1034.83 1034.45 1033.94 1033.51 1033.00 1032.73 1031.99 1031.28
Wind_Speed
2 6 4 3 1 2 0 4 5 2 0 0 4 8 13 8 7 8 8 8 9 10 9 10 9 9 8 7 6 6 5 3 2 2 3 3 3 3 4 4 6 7 7 7
6 4 1 1 3 4 3 2 2 2 1 2 4 12 9 4 6 9 10 9 9 7 8 9 9 7 8 7 6 6 6 4 3 3 2 3 3 2 3 3 5 6 6 7
6 2 2 1 5 5 4 4 3 2 2 2 4 7 4 3 2 5 5 6 5 10 12 10 9 8 8 7 6 6 6 5 4 5 3 3 4 3 2 3 3 4 6 6
6 2 2 4 4 1 4 0 3 3 4 3 2 4 5 1 3 5 6 7 8 8 7 10 10 8 8 8 6 7 6 5 4 5 3 3 3 3 2 2 2 3 5 6
2 2 3 3 2 2 3 1 3 1 2 3 2 4 8 4 3 2 3 5 7 8 12 14 14 13 9 9 9 7 7 5 5 3 5 5 5 3 2 2 4 3 3 5
3 0 3 2 2 2 4 3 3 4 3 4 3 5 7 6 7 5 4 3 3 6 8 11 11 10 10 8 9 8 8 6 5 4 5 7 8 6 4 2 3 2 2 3
1 3 1 2 5 5 2 5 3 5 5 6 1 2 11 4 4 5 4 3 1 3 6 10 13 11 10 10 9 8 9 7 7 6 5 6 7 6 7 5 4 4 2 1
7 3 4 1 2 6 4 6 7 8 4 3 4 7 9 4 4 3 4 4 2 2 3 9 11 11 12 12 11 9 10 8 8 7 7 5 6 4 4 4 4 3 3 3
6 2 0 3 2 2 4 3 4 8 3 5 4 7 7 3 5 4 5 4 2 1 2 7 8 10 12 13 14 13 11 8 9 9 7 7 6 5 5 5 4 3 4 3
6 7 2 1 0 0 3 2 4 3 3 4 5 5 7 7 9 7 6 6 5 2 2 5 8 11 11 13 13 11 11 11 7 8 7 7 7 7 6 5 5 5 4 4
4 6 1 3 6 8 1 1 2 3 5 7 2 9 8 11 11 12 9 8 7 6 5 6 6 6 8 8 9 10 8 9 8 8 7 7 6 7 6 6 6 6 4 5
5 7 5 6 1 1 2 6 5 7 7 2 3 10 3 6 9 11 9 9 8 7 7 6 6 4 7 8 8 11 9 9 8 7 7 7 7 7 7 6 6 6 6 6
7 2 4 6 4 4 5 6 4 4 3 6 8 8 2 5 8 8 10 9 8 5 6 4 4 4 5 7 8 10 10 11 9 8 8 7 7 7 8 7 7 6 5 5
2 3 8 10 7 7 6 5 8 7 5 5 10 4 5 8 9 8 8 8 7 6 2 3 3 4 4 5 8 8 8 8 8 8 7 7 8 8 7 6 6 6 6 5
4 6 3 2 3 4 6 6 12 11 9 9 7 18 10 10 10 9 9 6 6 5 5 2 2 2 4 2 5 5 7 8 7 7 7 8 6 6 6 6 6 6 6 5
2 2 3 3 2 2 4 5 8 16 12 15 13 19 8 3 5 6 7 7 6 5 2 1 2 1 2 1 3 5 6 6 7 7 7 5 6 6 6 5 5 4 5 5
7 8 4 6 2 2 10 14 18 9 7 13 15 16 5 4 7 7 6 6 5 5 4 5 6 6 5 2 3 5 5 5 6 5 2 1 2 3 3 2 2 2 3 3
7 6 3 3 3 4 6 1 8 18 6 17 8 5 6 7 7 6 3 6 7 6 6 7 6 8 8 7 9 9 9 10 10 10 9 9 8 7 6 6 5 5 4 3
2 5 3 7 5 9 4 7 11 12 14 22 22 21 4 6 5 3 3 6 6 7 7 7 6 6 8 11 9 12 12 11 11 10 10 9 7 6 6 6 5 4 3 4
3 4 4 4 7 13 6 3 6 6 15 6 19 17 12 9 6 5 5 10 10 9 7 7 8 9 11 10 9 12 11 10 10 9 8 7 6 6 5 4 5 3 2 4
4 1 8 4 5 12 6 6 5 8 8 1 4 6 13 9 3 10 11 11 10 9 9 9 10 10 10 9 9 12 11 10 8 6 6 6 6 5 4 4 3 3 3 4
12 11 6 3 1 15 7 5 11 5 2 1 3 3 9 14 14 13 12 11 10 9 9 10 11 11 10 9 8 10 10 6 5 5 5 5 5 5 5 5 4 4 4 4
5 10 11 12 10 3 9 2 2 4 5 2 5 7 15 16 11 10 10 10 8 7 9 9 10 10 6 8 8 9 6 6 6 5 5 5 6 7 7 6 5 5 6 5
5 3 4 4 4 3 6 3 3 3 6 8 6 8 9 15 12 13 12 10 9 8 7 7 9 9 8 7 8 7 7 5 4 5 5 5 5 7 6 5 5 5 4 4
4 10 7 2 1 3 3 4 9 10 11 12 10 8 10 13 12 12 11 10 9 9 8 7 8 8 7 5 6 6 6 5 5 4 4 4 4 4 5 5 5 6 5 8
5 8 7 6 6 4 2 11 12 12 11 10 13 11 11 12 12 12 10 9 9 8 7 7 7 7 6 6 6 6 6 6 5 6 5 5 5 5 5 5 6 10 13 16
Wind_Direction
25 87 182 170 117 124 141 128 128 108 328 338 246 270 270 239 196 206 222 206 199 191 185 164 155 148 142 138 141 146 138 176 78 86 100 80 81 67 50 47 40 36 30 29
43 150 284 18 46 85 71 112 89 82 136 66 334 295 282 192 206 192 202 216 203 177 159 164 155 151 156 159 168 162 160 152 124 122 125 132 132 92 102 68 43 39 34 30
136 153 324 89 54 99 53 130 116 147 357 276 331 317 334 9 142 185 207 210 200 180 170 168 165 167 158 169 172 157 153 138 121 122 107 88 82 69 62 45 45 36 43 36
84 298 102 98 91 42 153 134 114 90 75 194 115 256 305 188 65 64 176 201 218 173 163 166 165 171 173 183 169 158 154 146 153 155 139 163 150 136 148 122 113 66 56 44
159 62 73 95 101 2 141 79 97 86 99 73 309 94 266 146 95 126 197 217 229 216 169 175 179 176 179 162 169 166 161 165 172 163 135 122 112 116 124 108 103 106 74 60
99 41 60 111 96 35 134 88 50 52 83 38 234 138 273 198 182 173 140 61 25 354 180 175 173 159 174 167 162 162 165 183 182 169 145 145 141 145 129 140 130 132 105 61
40 16 29 89 91 4 80 89 18 359 12 216 291 70 237 213 213 182 181 169 24 339 153 157 165 173 171 172 170 165 165 182 185 183 172 162 162 162 164 158 154 141 138 89
152 250 172 340 72 170 176 150 155 192 188 212 4 230 259 217 158 123 121 132 98 27 171 172 176 174 176 175 174 171 173 173 182 184 197 179 169 157 171 158 151 148 146 159
127 73 50 58 11 80 199 188 144 102 43 56 219 278 319 182 175 114 121 116 122 35 45 177 177 179 179 178 181 178 179 183 180 185 184 188 179 173 179 169 152 157 161 167
189 89 15 338 341 335 147 228 96 356 122 254 278 267 228 214 204 169 164 171 181 187 206 199 190 193 190 185 181 180 176 185 187 189 183 187 182 184 182 170 175 184 193 172
135 102 247 46 208 170 134 188 39 122 146 166 198 260 214 205 178 176 180 177 175 187 214 240 239 218 197 176 174 178 175 176 184 185 190 188 190 189 187 180 191 192 190 196
205 117 142 213 178 346 193 204 169 132 229 215 152 270 278 194 175 156 177 180 182 180 218 237 249 227 190 186 175 177 178 176 184 185 185 195 193 186 193 195 201 203 201 201
196 281 75 354 351 352 212 195 191 129 94 204 142 255 160 124 140 186 175 193 195 209 224 227 239 242 214 199 185 180 178 187 182 174 181 191 196 193 201 203 205 208 203 206
120 109 159 187 192 131 189 210 178 134 130 183 221 231 211 209 195 199 198 192 185 184 183 213 243 248 248 213 189 181 175 175 173 176 181 191 199 202 203 208 208 208 206 198
125 187 134 265 157 125 180 173 187 196 190 181 200 224 217 209 196 200 190 169 157 142 116 103 251 276 287 279 194 189 171 166 170 175 177 200 200 209 206 210 210 213 208 212
358 210 102 330 228 192 264 217 203 220 232 261 264 267 214 228 140 120 147 150 156 145 140 50 358 4 317 308 203 158 168 164 153 167 189 178 196 208 216 217 215 211 227 236
140 136 112 255 58 114 293 197 193 196 199 202 218 238 139 144 175 163 155 139 126 102 69 35 27 39 26 43 134 140 145 125 118 123 106 183 197 188 191 215 221 261 282 289
138 115 95 161 31 245 247 212 196 207 220 219 262 238 191 169 126 114 102 137 117 109 84 60 44 38 14 28 47 70 56 58 69 64 54 42 40 41 34 45 32 13 359 339
75 129 124 149 200 305 226 192 160 172 250 213 220 230 171 117 75 357 55 90 91 86 83 78 57 40 37 42 43 67 60 57 55 43 42 27 23 28 25 16 3 333 354 332
62 61 123 137 177 212 241 181 148 118 275 231 205 216 163 143 186 203 150 102 85 75 69 70 58 50 44 35 53 69 57 55 42 25 19 19 13 14 6 352 345 322 323 290
126 48 197 183 224 283 219 166 136 126 248 262 174 153 157 185 226 129 114 88 79 91 86 73 63 56 39 34 63 67 58 44 15 5 7 10 4 348 356 347 322 309 307 311
157 154 181 103 143 263 162 76 169 193 349 111 78 111 109 120 113 107 104 100 93 85 89 83 77 62 43 30 64 66 52 13 358 356 4 360 346 359 3 344 328 319 316 316
203 182 176 186 207 219 187 56 134 141 133 95 91 103 128 124 121 115 113 101 89 89 93 94 93 79 42 44 46 61 32 5 2 9 6 356 1 6 354 353 340 342 347 344
260 181 166 111 279 216 154 60 61 80 103 95 78 99 112 120 122 121 124 123 109 93 79 95 93 79 69 57 57 57 29 0 6 7 4 0 5 351 350 345 342 334 324 321
188 142 157 270 181 98 172 159 134 107 103 92 71 77 107 117 121 122 116 111 107 98 84 75 88 87 77 70 66 33 20 6 5 357 354 350 343 346 334 340 333 332 321 310
191 166 173 210 174 139 119 139 137 129 124 116 109 90 78 107 116 111 107 105 107 102 99 89 82 86 66 49 48 35 20 14 2 1 357 348 339 333 336 335 323 323 323 326